| time (UTC) | temp C | wind direction | speed KPH | gust KPH | rain 1hr cm | rain 24hr cm | rain mn cm | humidity % | barometer mb |
| 20260507010017 | 13 | 0.0 | 9.7 | 0.00 | 1.47 | 1.47 | 86 | 1007.8 | |
| 20260507003018 | 13 | 0 | 1.6 | 8.0 | 0.00 | 1.47 | 1.47 | 88 | 1006.9 |
| 20260507000017 | 15 | 0.0 | 4.8 | 0.00 | 1.47 | 1.47 | 89 | 1006.0 | |
| 20260506233036 | 16 | 0.0 | 0.0 | 0.00 | 1.47 | 1.47 | 91 | 1005.4 | |
| 20260506230017 | 16 | 0.0 | 0.0 | 0.08 | 1.47 | 1.47 | 91 | 1005.1 | |
| 20260506223016 | 16 | 0.0 | 0.0 | 0.18 | 1.47 | 1.47 | 91 | 1005.1 | |
| 20260506220016 | 17 | 0.0 | 0.0 | 0.10 | 1.40 | 1.40 | 90 | 1004.8 | |
| 20260506213016 | 17 | 0.0 | 0.0 | 0.00 | 1.30 | 1.30 | 90 | 1004.3 | |
| 20260506210016 | 17 | 0.0 | 3.2 | 0.00 | 1.30 | 1.30 | 91 | 1004.1 | |
| 20260506203017 | 16 | 0.0 | 3.2 | 0.00 | 1.30 | 1.30 | 93 | 1004.1 | |
| 20260506200037 | 16 | 0.0 | 3.2 | 0.00 | 1.30 | 1.30 | 93 | 1004.2 | |
| 20260506193036 | 16 | 0.0 | 0.0 | 0.00 | 1.30 | 1.30 | 93 | 1004.2 | |
| 20260506190019 | 16 | 0.0 | 0.0 | 0.03 | 1.30 | 1.30 | 93 | 1004.6 | |
| 20260506183120 | 15 | 0.0 | 1.6 | 0.05 | 1.30 | 1.30 | 92 | 1004.6 | |
| 20260506180017 | 15 | 0.0 | 0.0 | 0.23 | 1.27 | 1.27 | 92 | 1004.9 | |
| 20260506173017 | 15 | 0.0 | 0.0 | 0.36 | 1.24 | 1.24 | 92 | 1004.9 | |
| 20260506170017 | 15 | 0.0 | 1.6 | 0.23 | 1.04 | 1.04 | 92 | 1005.1 | |
| 20260506163017 | 15 | 0.0 | 6.4 | 0.10 | 0.89 | 0.89 | 92 | 1005.2 | |
| 20260506160017 | 15 | 203 | 1.6 | 6.4 | 0.23 | 0.81 | 0.81 | 91 | 1005.1 |
| 20260506153017 | 15 | 203 | 1.6 | 6.4 | 0.36 | 0.79 | 0.79 | 91 | 1005.2 |
| 20260506150017 | 15 | 203 | 1.6 | 6.4 | 0.33 | 0.58 | 0.58 | 90 | 1005.8 |
| 20260506143016 | 15 | 0.0 | 4.8 | 0.25 | 0.43 | 0.43 | 90 | 1005.3 | |
| 20260506140059 | 15 | 0.0 | 1.6 | 0.13 | 0.25 | 0.25 | 90 | 1005.6 | |
| 20260506133018 | 15 | 0.0 | 0.0 | 0.10 | 0.18 | 0.18 | 89 | 1005.7 | |
| 20260506130016 | 15 | 0.0 | 0.0 | 0.10 | 0.13 | 0.13 | 86 | 1006.1 | |
| 20260506123016 | 16 | 0.0 | 0.0 | 0.08 | 0.08 | 0.08 | 84 | 1006.2 | |
| 20260506120017 | 16 | 0.0 | 0.0 | 0.03 | 0.03 | 0.03 | 79 | 1005.8 | |
| 20260506113016 | 16 | 0.0 | 6.4 | 0.00 | 0.00 | 0.00 | 76 | 1005.7 | |
| 20260506110016 | 17 | 0.0 | 4.8 | 0.00 | 0.00 | 0.00 | 74 | 1005.6 | |
| 20260506103016 | 16 | 0.0 | 6.4 | 0.00 | 0.00 | 0.00 | 72 | 1005.1 | |
| 20260506100017 | 16 | 0.0 | 0.0 | 0.00 | 0.00 | 0.00 | 70 | 1005.0 | |
| 20260506093019 | 16 | 0.0 | 0.0 | 0.00 | 0.00 | 0.00 | 64 | 1005.2 | |
| 20260506090018 | 17 | 0.0 | 0.0 | 0.00 | 0.00 | 0.00 | 63 | 1005.2 | |
| 20260506083039 | 17 | 0.0 | 0.0 | 0.00 | 0.00 | 0.00 | 60 | 1005.3 | |
| 20260506073018 | 17 | 0.0 | 0.0 | 0.00 | 0.00 | 0.00 | 58 | 1005.4 | |
| 20260506043017 | 18 | 0.0 | 0.0 | 0.00 | 0.25 | 0.00 | 54 | 1006.5 | |
| 20260506040016 | 18 | 0.0 | 0.0 | 0.00 | 0.25 | 0.25 | 53 | 1006.8 | |
| 20260506033017 | 19 | 0.0 | 0.0 | 0.00 | 0.25 | 0.25 | 49 | 1006.6 | |
| 20260506030016 | 20 | 0.0 | 0.0 | 0.00 | 0.25 | 0.25 | 46 | 1006.6 | |
| 20260506023036 | 20 | 0.0 | 0.0 | 0.00 | 0.25 | 0.25 | 46 | 1006.6 | |
| 20260506020016 | 21 | 0.0 | 1.6 | 0.00 | 0.25 | 0.25 | 45 | 1006.6 | |
| 20260506013016 | 21 | 0.0 | 0.0 | 0.00 | 0.25 | 0.25 | 43 | 1006.1 |